Estación Meteorológica Peña el Pijo (Robertgarden) [ 07/15/20 06:50:40 CEST ]

Fecha Hora Presion(HPa) Temp (°C) Humedad % Rocio (°C) Viento ( m/s) Direccion Lluvia 1Hora(mm) Lluvia 24H(mm) LLuvia Total(mm)
2020-Mar-27 01:09:02 998.700 - - - - N     39.88
2020-Mar-27 02:09:47 998.700 - - - - N     39.88
2020-Mar-27 03:13:33 998.300 - - - - N     39.88
2020-Mar-27 04:08:59 997.900 - - - - N     39.88
2020-Mar-27 05:09:25 997.500 - - - - N     39.88
2020-Mar-27 06:09:40 997.500 - - - - N     39.88
2020-Mar-27 07:09:09 997.500 - - - - N     39.88
2020-Mar-27 08:09:29 997.900 - - - - N     39.88
2020-Mar-27 09:09:23 998.000 - - - - N     39.88
2020-Mar-27 10:09:09 998.600 - - - - N     39.88
2020-Mar-27 11:09:04 999.200 - - - - N     39.88
2020-Mar-27 12:09:20 998.800 - - - - N     39.88
2020-Mar-27 13:08:54 998.000 - - - - N     39.88
2020-Mar-27 14:09:02 998.600 - - - - N     39.88
2020-Mar-27 15:09:19 998.600 - - - - N     39.88
2020-Mar-27 16:09:19 998.300 - - - - N     39.88
2020-Mar-27 17:09:14 998.900 - - - - N     39.88
2020-Mar-27 18:09:15 999.800 - - - - N     39.88
2020-Mar-27 19:09:24 1000.300 - - - - N     39.88
2020-Mar-27 20:09:27 1000.900 - - - - N     39.88
2020-Mar-27 21:09:10 1001.500 - - - - N     39.88
2020-Mar-27 22:09:11 1001.700 - - - - N     39.88
2020-Mar-27 23:09:18 1001.800 - - - - N     39.88

Temperatura Máxima:    Temperatura Mínima:
Presión Máxima:1001.800 Hpa    Presión Mínima:997.500 Hpa


Volver